Wind_Speed
10 11 9 5 2 3 1 2 0 2 2 1 3 4 4 4 1 2 18 13 22 18 13 14 12 12 9 10 8 6 7 8 6 5 8 8 9 8 10 9 10 13 14 17 16 15 12 13 9
10 10 6 2 3 2 2 1 3 3 7 13 8 5 4 3 4 13 18 19 19 16 16 12 12 11 10 10 7 5 6 6 7 8 7 7 8 8 9 9 10 12 15 18 17 14 12 11 10
9 9 3 3 2 3 3 3 4 5 9 4 5 5 3 2 6 19 18 22 19 17 15 13 11 11 9 8 6 4 5 6 6 7 8 8 7 7 9 8 10 13 17 17 16 15 12 11 10
7 4 5 3 3 3 3 3 5 10 1 4 9 6 4 3 19 9 23 21 20 16 16 12 13 11 10 9 8 3 5 7 7 8 7 7 7 8 9 9 11 14 17 16 15 13 13 11 11
8 3 3 2 3 2 2 4 10 5 6 5 5 5 5 18 8 19 21 20 17 12 15 12 13 11 9 8 7 5 7 7 6 8 7 7 8 8 9 10 12 16 16 15 13 13 13 12 13
4 3 3 2 3 2 1 8 7 4 5 7 7 8 8 12 13 24 20 18 13 12 16 13 12 11 10 9 7 5 6 6 6 7 6 8 8 9 10 11 11 15 15 14 12 11 13 13 15
5 3 3 3 2 2 4 10 5 5 6 4 9 5 7 16 19 22 20 17 13 11 15 14 14 12 10 8 7 6 6 6 6 6 6 6 7 9 10 11 11 12 12 11 11 11 13 13 12
4 4 4 3 3 3 5 7 3 5 4 8 8 5 6 23 26 23 21 18 14 12 13 16 13 10 8 10 6 6 6 6 6 7 7 6 6 7 9 9 11 8 9 8 9 10 12 12 12
5 4 2 4 6 2 7 3 5 4 7 7 6 4 4 25 29 27 25 21 16 14 13 15 13 11 9 7 4 5 6 6 6 7 7 8 8 9 8 8 8 7 8 9 10 11 12 11 12
3 4 8 4 4 3 6 4 10 5 5 5 6 8 11 27 31 31 29 25 19 16 14 10 11 11 8 6 5 5 5 6 7 7 8 8 7 8 8 8 9 9 9 10 11 11 11 12 13
3 4 4 3 3 3 6 4 7 7 3 9 11 15 20 30 31 31 27 21 18 16 13 10 7 9 7 6 5 5 5 5 6 7 8 7 7 7 8 8 10 10 11 11 12 12 12 12 12
2 2 4 3 4 4 5 6 4 9 2 2 8 11 24 31 32 31 27 23 19 16 12 10 10 8 7 7 5 5 5 5 6 6 7 8 8 9 9 10 12 12 13 13 14 13 14 14 14
3 3 4 3 3 3 4 3 3 6 8 7 6 15 24 29 30 28 23 20 18 16 13 10 9 8 9 7 6 5 5 5 6 6 7 8 8 9 10 11 13 13 14 13 14 14 14 15 15
4 4 3 3 3 3 3 2 2 3 10 8 11 18 23 27 29 29 27 24 20 17 13 11 9 9 9 8 6 5 5 6 6 7 7 8 9 9 10 12 13 14 14 14 14 14 15 16 16
5 2 0 2 3 2 3 2 5 4 7 10 14 19 23 25 27 28 26 24 20 17 14 11 10 9 9 8 7 6 6 6 7 7 7 8 10 10 11 12 14 15 15 14 15 16 16 17 18
3 4 1 1 5 1 3 5 3 4 10 12 15 18 22 25 24 25 24 23 21 19 16 14 11 9 9 9 8 6 6 7 8 8 8 9 10 11 12 12 13 15 16 15 16 17 19 19 20
5 3 4 2 3 2 2 3 1 4 10 10 15 18 20 23 24 24 24 23 21 21 18 15 13 10 9 9 9 8 7 8 8 9 9 9 11 12 12 12 12 14 15 16 16 16 16 18 20
6 4 3 3 3 2 2 7 4 4 8 10 14 17 21 24 25 24 23 23 22 22 20 16 14 12 11 10 10 10 9 9 10 10 10 10 11 12 12 11 11 13 14 16 15 15 16 16 17
5 4 3 2 0 3 4 6 7 7 8 10 13 18 21 24 21 21 22 23 23 24 23 20 17 15 13 11 10 10 10 10 11 12 12 12 12 12 12 12 11 13 13 14 14 14 14 16 15
4 3 4 0 2 2 3 10 5 1 2 2 8 16 20 21 21 22 23 24 25 25 25 23 20 15 12 10 7 9 9 11 11 12 12 12 12 12 12 12 12 13 15 14 13 12 13 13 11
4 5 4 2 2 3 3 7 2 3 7 9 8 4 12 22 22 23 25 25 24 26 26 24 20 17 13 11 10 10 12 12 12 13 13 13 13 13 13 13 14 14 15 13 13 12 10 8 4
5 2 4 5 4 3 2 4 3 1 4 6 13 12 4 11 21 20 22 24 24 24 24 23 20 18 15 12 10 10 10 11 11 12 13 14 14 14 14 14 14 15 16 16 15 14 13 9 6
3 2 5 3 4 2 1 3 5 1 3 4 10 13 9 3 15 18 19 20 20 21 22 22 21 20 18 14 11 10 11 12 11 12 13 14 15 15 15 16 15 16 16 17 17 16 14 12 9
9 6 6 4 3 2 3 4 5 3 2 1 5 12 10 10 12 12 14 15 17 19 21 21 22 22 19 16 13 12 12 12 13 13 13 14 15 16 17 17 18 18 18 17 18 17 16 14 11
3 5 2 3 2 4 1 2 7 1 1 1 3 10 11 12 13 13 11 11 13 15 17 18 19 21 20 18 15 13 12 13 13 13 13 14 15 16 17 18 19 19 19 20 19 19 18 16 15
4 5 5 7 4 2 2 5 3 2 3 4 7 11 14 15 14 13 12 10 10 11 12 13 14 17 19 17 15 14 13 14 14 14 14 15 14 14 16 18 19 20 21 21 21 20 19 18 17
5 3 4 7 2 2 2 4 0 2 2 4 8 13 16 16 15 14 13 11 10 9 9 10 11 14 16 16 15 15 14 15 16 16 15 16 16 16 17 18 20 21 22 22 22 22 21 20 18
2 3 3 2 3 4 3 4 4 6 7 5 5 10 13 14 15 14 13 11 10 9 8 8 9 10 13 15 16 16 15 15 16 17 17 17 17 18 19 19 21 22 23 24 24 23 22 21 19
2 1 4 3 3 5 2 5 3 5 7 8 9 10 11 12 13 13 12 10 8 7 6 6 7 8 10 12 14 15 15 16 17 18 18 18 19 20 20 20 21 23 24 24 24 24 23 22 21
1 3 4 4 5 2 2 5 1 1 7 18 15 10 9 9 9 9 9 7 6 5 4 4 4 5 7 8 10 12 14 15 17 18 18 19 20 21 21 22 23 24 24 25 25 24 23 22 21
Wind_Direction
144 143 146 144 87 63 214 212 67 134 120 115 120 140 128 70 107 139 149 150 150 150 148 141 152 134 140 132 141 144 125 114 118 107 73 72 80 77 78 70 82 96 93 97 101 96 91 76 66
150 145 139 121 94 93 249 222 200 154 129 113 95 81 52 85 100 138 146 150 148 148 148 150 147 142 141 129 138 138 136 126 110 92 91 81 76 81 84 74 88 93 94 101 107 102 98 91 77
148 146 113 91 108 167 193 197 148 122 128 126 107 73 72 80 131 141 147 148 145 149 146 148 149 130 134 145 147 131 135 109 96 89 82 75 79 86 90 78 92 97 96 107 113 112 107 103 94
147 137 67 89 194 226 200 166 147 137 132 134 132 84 91 167 138 145 149 148 144 148 139 148 142 143 152 163 134 146 113 101 95 79 76 73 75 80 91 89 95 98 98 108 116 114 117 108 101
151 107 66 74 270 255 249 146 152 142 138 137 146 146 101 139 146 150 153 154 160 142 141 143 151 153 152 145 151 175 118 97 87 85 78 75 75 83 94 94 102 103 104 112 121 126 122 120 107
105 94 81 207 253 259 222 165 159 130 139 145 117 125 148 163 158 156 157 154 151 143 146 151 152 162 163 159 169 162 118 104 91 102 82 80 80 86 100 98 107 112 112 120 128 121 126 120 109
125 93 189 184 235 283 196 162 163 156 148 180 149 120 156 165 159 161 159 155 156 154 162 154 164 170 179 170 170 132 106 85 78 79 73 67 93 98 101 104 106 113 117 119 114 118 123 126 119
142 94 132 226 195 245 163 156 171 167 167 150 164 172 181 173 163 164 163 166 169 165 166 158 168 169 173 180 146 122 96 90 81 78 78 85 89 92 112 118 116 120 125 118 119 119 130 132 129
142 73 173 220 165 206 161 139 149 155 143 168 177 157 163 171 165 168 168 173 177 171 170 165 171 180 187 144 137 110 101 96 88 83 82 87 95 97 102 109 115 115 110 107 111 117 125 132 136
114 128 209 201 190 173 175 173 163 155 152 191 182 179 161 170 171 174 174 177 179 175 173 177 179 184 158 149 140 123 111 103 96 91 87 89 97 101 97 89 92 102 108 111 115 122 128 132 136
169 179 186 210 176 139 153 145 171 146 226 211 208 184 169 175 179 181 180 183 178 177 177 175 174 163 159 157 152 137 125 114 107 101 95 93 97 104 106 105 106 108 109 111 113 118 124 133 139
146 210 170 160 166 141 157 152 173 203 200 187 219 200 177 182 185 186 184 183 180 178 178 179 178 181 173 163 154 144 135 125 117 110 105 103 99 104 109 109 109 110 108 109 108 113 116 122 125
157 178 172 149 156 158 168 196 214 237 229 232 204 186 184 186 189 189 189 184 182 182 180 181 185 186 178 168 157 149 142 134 127 121 116 114 110 111 111 113 112 112 109 109 112 113 115 118 120
160 150 150 163 151 151 170 180 201 234 215 199 189 188 186 190 192 190 191 190 188 184 182 178 176 174 172 171 165 158 154 145 138 131 125 122 119 117 117 117 117 114 112 114 115 116 117 115 114
120 150 2 202 168 124 156 253 230 212 179 186 183 188 188 193 196 197 194 192 191 188 185 180 176 173 174 177 175 167 161 155 147 141 134 130 127 125 123 123 122 118 117 117 119 118 116 114 112
81 56 121 193 150 167 144 270 141 209 191 184 187 190 194 198 202 201 201 197 193 194 191 187 184 181 182 184 182 178 173 165 158 151 145 139 137 134 132 130 128 124 121 120 121 119 118 115 112
11 203 206 287 185 128 145 254 131 182 186 190 195 196 199 201 206 205 205 203 199 197 197 195 192 189 188 188 188 186 181 174 169 163 157 151 146 145 142 138 137 132 129 128 126 124 122 119 114
196 202 230 234 191 103 151 258 245 165 192 207 204 204 206 207 209 205 205 204 205 203 202 203 200 196 195 195 193 192 189 183 179 175 170 165 160 156 154 152 152 147 144 140 138 134 127 122 118
133 154 180 181 100 161 232 263 259 255 228 229 224 215 212 214 212 212 209 206 204 206 206 204 204 204 207 206 204 203 200 194 188 184 181 177 173 171 170 169 167 162 158 154 151 147 139 129 123
148 148 230 140 81 145 10 281 274 199 104 234 250 239 228 220 214 212 209 208 206 207 207 207 208 210 211 211 217 216 213 206 200 196 192 189 185 181 182 180 181 178 172 170 165 165 153 142 135
180 177 190 193 89 62 319 292 157 67 96 60 38 309 238 227 215 207 208 208 207 207 207 207 209 210 209 213 221 222 216 211 209 205 201 198 196 194 192 190 190 192 187 188 183 181 180 169 160
186 205 123 129 102 220 1 264 296 147 122 47 21 19 358 219 207 207 208 209 209 208 206 208 211 212 212 217 230 238 236 231 222 214 211 208 206 204 202 199 198 200 201 198 201 200 202 209 226
167 86 101 93 101 63 351 81 262 170 164 5 6 21 37 131 184 196 205 209 210 207 206 208 211 214 216 223 236 242 233 228 223 221 219 216 214 212 210 209 208 208 209 209 212 215 219 228 241
151 79 55 59 87 43 235 148 275 183 125 349 4 33 58 97 139 162 179 193 202 203 205 209 212 216 218 225 237 244 240 237 231 227 226 226 224 222 219 218 216 216 216 217 220 222 227 231 232
86 94 19 357 2 217 186 85 247 138 74 93 32 47 71 96 114 127 143 164 184 195 201 207 212 217 221 228 239 244 243 240 237 236 236 235 234 233 231 229 226 224 223 223 224 227 231 233 237
172 150 162 198 196 199 75 230 259 99 104 97 83 82 87 95 104 114 120 132 151 172 189 201 209 216 224 232 240 243 243 242 241 240 239 237 236 236 237 236 234 231 229 227 227 228 230 232 234
186 187 135 104 56 48 204 278 268 131 110 109 97 93 85 89 97 105 114 123 136 156 173 190 205 216 226 233 238 243 247 248 245 244 246 242 237 235 236 236 235 235 235 233 232 232 233 234 236
137 155 92 3 141 231 277 279 226 196 186 156 117 105 98 97 98 102 110 120 133 149 168 187 203 215 225 233 238 242 249 252 248 246 249 249 245 242 240 239 238 237 236 236 235 235 235 235 236
113 11 47 108 112 167 169 258 194 194 174 163 151 127 111 102 99 98 102 108 116 130 155 186 204 218 227 234 240 245 250 250 247 248 253 255 251 246 246 246 244 241 239 238 237 236 236 236 236
52 194 161 134 228 78 145 268 0 265 164 158 152 135 119 108 106 107 110 114 126 140 163 185 198 214 226 236 244 250 251 253 253 255 257 257 254 249 249 252 248 243 241 239 238 237 237 236 236
Height
1512 1513 1515 1516 1524 1525 1528 1525 1524 1523 1523 1525 1527 1527 1528 1532 1531 1537 1538 1541 1544 1548 1550 1553 1555 1557 1558 1559 1559 1560 1559 1559 1558 1557 1557 1557 1557 1556 1556 1556 1555 1556 1558 1560 1563 1564 1563 1564 1563
1512 1513 1516 1516 1526 1530 1525 1523 1523 1522 1524 1525 1527 1529 1529 1533 1534 1535 1539 1542 1545 1548 1551 1553 1556 1557 1559 1560 1560 1560 1559 1559 1559 1558 1558 1558 1558 1557 1557 1556 1556 1557 1559 1562 1564 1566 1566 1566 1565
1513 1514 1515 1522 1532 1528 1524 1521 1522 1524 1525 1525 1528 1530 1532 1534 1535 1538 1539 1543 1547 1550 1552 1554 1557 1558 1560 1561 1561 1561 1560 1559 1559 1559 1559 1559 1559 1558 1558 1557 1557 1559 1561 1564 1566 1567 1567 1568 1567
1513 1516 1518 1524 1525 1520 1519 1518 1520 1524 1526 1525 1526 1531 1534 1534 1537 1538 1541 1544 1548 1550 1553 1555 1558 1559 1560 1561 1561 1561 1559 1560 1560 1560 1560 1560 1559 1558 1559 1558 1560 1561 1563 1565 1567 1568 1569 1569 1569
1513 1514 1524 1529 1525 1519 1518 1517 1521 1522 1524 1525 1526 1531 1534 1535 1537 1539 1542 1545 1547 1551 1554 1556 1559 1560 1561 1560 1561 1560 1559 1560 1560 1561 1561 1560 1560 1560 1560 1561 1562 1563 1565 1566 1567 1568 1569 1570 1571
1512 1515 1528 1529 1526 1518 1517 1517 1519 1521 1523 1525 1526 1530 1534 1535 1538 1540 1543 1545 1549 1551 1554 1558 1559 1560 1561 1561 1560 1560 1559 1560 1560 1561 1561 1561 1561 1561 1561 1563 1564 1565 1566 1567 1568 1568 1569 1570 1571
1511 1518 1525 1526 1523 1520 1516 1517 1519 1521 1522 1525 1526 1530 1533 1534 1537 1541 1544 1546 1549 1551 1554 1556 1559 1559 1561 1560 1560 1560 1560 1561 1561 1562 1562 1562 1561 1562 1563 1564 1565 1566 1566 1567 1568 1568 1570 1571 1573
1510 1514 1524 1524 1523 1519 1515 1517 1517 1520 1522 1524 1525 1527 1531 1531 1535 1540 1544 1547 1549 1551 1553 1555 1558 1560 1560 1559 1560 1561 1562 1562 1563 1563 1563 1563 1563 1564 1564 1565 1566 1566 1566 1567 1568 1568 1570 1573 1575
1509 1520 1524 1518 1522 1514 1515 1516 1518 1519 1520 1523 1524 1525 1526 1529 1534 1539 1543 1546 1548 1550 1552 1555 1557 1558 1559 1560 1561 1562 1563 1564 1564 1564 1564 1564 1565 1565 1565 1566 1566 1567 1567 1568 1569 1570 1572 1574 1576
1509 1519 1515 1512 1512 1512 1514 1514 1517 1519 1520 1522 1523 1524 1525 1529 1532 1536 1539 1543 1546 1549 1552 1554 1555 1557 1558 1560 1562 1563 1564 1565 1565 1565 1566 1566 1566 1567 1567 1568 1568 1568 1569 1569 1570 1571 1573 1575 1577
1509 1512 1509 1510 1510 1511 1513 1514 1516 1517 1520 1517 1518 1521 1524 1527 1531 1535 1539 1542 1545 1548 1551 1553 1555 1557 1558 1560 1562 1563 1564 1565 1566 1567 1567 1567 1568 1568 1569 1569 1569 1570 1570 1571 1572 1573 1574 1576 1578
1507 1507 1508 1509 1509 1510 1512 1514 1515 1515 1515 1516 1517 1520 1521 1525 1529 1533 1537 1541 1544 1547 1550 1552 1555 1557 1559 1560 1562 1564 1565 1566 1567 1568 1569 1569 1569 1570 1570 1571 1571 1572 1572 1573 1574 1575 1576 1578 1579
1505 1507 1508 1507 1510 1510 1512 1513 1513 1512 1514 1514 1516 1518 1520 1525 1530 1534 1539 1542 1544 1546 1549 1552 1554 1556 1558 1560 1562 1563 1565 1566 1568 1569 1569 1570 1571 1572 1572 1572 1573 1574 1574 1576 1577 1578 1579 1580 1581
1504 1507 1507 1507 1509 1510 1511 1513 1512 1511 1511 1513 1514 1517 1519 1522 1527 1533 1536 1539 1542 1545 1548 1551 1553 1555 1557 1559 1561 1563 1565 1567 1568 1570 1571 1571 1572 1573 1574 1575 1575 1576 1577 1578 1579 1580 1581 1582 1583
1505 1507 1507 1508 1508 1509 1510 1512 1510 1510 1510 1511 1514 1517 1519 1522 1526 1530 1534 1537 1541 1545 1547 1550 1553 1555 1557 1559 1561 1563 1565 1567 1568 1570 1571 1572 1573 1574 1576 1577 1578 1579 1580 1581 1582 1583 1584 1584 1585
1507 1509 1511 1508 1508 1509 1510 1510 1508 1509 1509 1510 1513 1515 1518 1520 1525 1529 1533 1536 1539 1543 1546 1549 1552 1554 1556 1558 1561 1563 1565 1567 1568 1570 1572 1573 1574 1576 1577 1579 1580 1581 1582 1584 1585 1586 1586 1587 1588
1512 1512 1514 1507 1508 1508 1510 1507 1507 1507 1508 1510 1512 1513 1516 1520 1524 1527 1532 1535 1538 1541 1545 1549 1551 1554 1556 1558 1560 1562 1564 1566 1568 1570 1572 1573 1575 1577 1579 1581 1582 1583 1585 1586 1588 1588 1589 1589 1590
1509 1512 1511 1508 1508 1508 1510 1509 1507 1506 1507 1508 1510 1512 1514 1517 1519 1524 1529 1534 1537 1541 1544 1548 1550 1553 1555 1557 1559 1561 1564 1566 1568 1570 1572 1573 1575 1577 1579 1582 1584 1585 1587 1588 1590 1591 1591 1592 1592
1504 1505 1505 1506 1507 1507 1509 1509 1505 1505 1506 1507 1508 1509 1511 1514 1519 1523 1527 1531 1534 1539 1542 1545 1548 1551 1553 1556 1558 1561 1563 1565 1567 1569 1571 1573 1575 1577 1579 1582 1584 1586 1588 1590 1591 1592 1593 1593 1594
1502 1503 1506 1507 1507 1508 1511 1504 1500 1502 1504 1505 1506 1506 1508 1511 1514 1518 1523 1527 1531 1535 1540 1543 1546 1549 1553 1556 1558 1560 1562 1564 1566 1568 1571 1573 1575 1577 1579 1581 1584 1586 1588 1590 1592 1593 1594 1595 1596
1503 1506 1506 1504 1509 1514 1513 1504 1497 1504 1504 1505 1505 1503 1503 1505 1509 1514 1518 1523 1528 1532 1536 1540 1544 1548 1551 1554 1557 1559 1561 1563 1565 1567 1570 1572 1574 1576 1578 1581 1583 1585 1587 1590 1591 1593 1595 1596 1597
1503 1501 1502 1506 1512 1518 1518 1516 1498 1503 1504 1505 1505 1502 1500 1500 1505 1510 1515 1519 1524 1529 1534 1538 1542 1546 1549 1552 1555 1558 1560 1562 1564 1567 1569 1571 1573 1575 1577 1580 1582 1584 1586 1588 1590 1592 1594 1595 1596
1499 1503 1506 1513 1523 1520 1517 1529 1500 1503 1502 1506 1506 1503 1500 1499 1502 1507 1512 1517 1521 1527 1531 1535 1540 1543 1547 1550 1553 1556 1558 1560 1562 1565 1567 1569 1571 1573 1576 1578 1580 1582 1584 1587 1588 1590 1592 1593 1594
1503 1506 1514 1523 1525 1539 1529 1521 1501 1500 1504 1507 1507 1504 1502 1501 1503 1507 1511 1516 1520 1524 1529 1533 1537 1541 1545 1549 1551 1553 1555 1558 1560 1562 1565 1567 1569 1572 1574 1576 1578 1580 1582 1584 1586 1588 1590 1592 1592
1501 1505 1525 1527 1536 1517 1530 1529 1499 1506 1508 1508 1508 1506 1505 1504 1506 1509 1512 1515 1519 1523 1527 1531 1535 1539 1543 1547 1549 1551 1553 1555 1557 1560 1562 1565 1567 1569 1571 1573 1576 1578 1580 1582 1584 1586 1587 1589 1590
1501 1503 1512 1514 1518 1511 1530 1519 1497 1508 1509 1509 1509 1508 1507 1507 1509 1510 1513 1516 1519 1523 1526 1530 1534 1537 1541 1544 1547 1549 1551 1552 1554 1557 1559 1561 1564 1566 1568 1570 1572 1574 1576 1579 1580 1582 1584 1585 1587
1501 1504 1507 1535 1550 1533 1511 1506 1510 1510 1510 1510 1510 1510 1510 1510 1511 1513 1515 1517 1520 1523 1526 1529 1532 1535 1538 1541 1544 1546 1548 1549 1551 1554 1555 1557 1560 1562 1563 1565 1568 1570 1572 1574 1577 1578 1580 1581 1583
1499 1502 1507 1526 1530 1522 1511 1510 1491 1509 1508 1509 1510 1510 1511 1512 1513 1515 1517 1519 1521 1523 1526 1528 1531 1533 1536 1538 1540 1542 1544 1546 1548 1550 1551 1554 1556 1557 1559 1561 1563 1565 1567 1570 1572 1574 1576 1578 1579
1503 1510 1509 1510 1519 1518 1522 1498 1499 1499 1502 1506 1510 1510 1511 1512 1514 1516 1518 1520 1522 1524 1526 1527 1529 1531 1533 1535 1536 1538 1540 1541 1543 1545 1548 1550 1552 1553 1555 1557 1558 1561 1563 1565 1567 1569 1571 1573 1575
1499 1498 1498 1500 1518 1540 1531 1505 1501 1502 1502 1505 1508 1510 1511 1513 1515 1517 1519 1520 1522 1523 1525 1526 1527 1529 1530 1531 1533 1534 1536 1537 1539 1541 1543 1545 1546 1548 1550 1552 1553 1555 1557 1559 1562 1564 1566 1568 1570